Regional Weather Roundup
Issued by NWS

Home | Current Version | Previous Version | Text Only | Print | Product List | Glossary On
Versions: 1 2 3 4 5 6 7 8 9 10 11 12 13 14 15 16 17 18 19 20 21 22 23 24 25 26 27 28 29 30 31 32 33 34 35 36 37 38 39 40 41 42 43 44 45 46 47 48 49 50
000
ASUS44 KFWD 251615
RWRTX
NORTH TEXAS HOURLY WEATHER ROUNDUP
NATIONAL WEATHER SERVICE FORT WORTH TX
1100 AM CDT SAT APR 25 2015

NOTE: "FAIR" INDICATES FEW OR NO CLOUDS BELOW 12,000 FEET WITH NO
SIGNIFICANT WEATHER AND/OR OBSTRUCTIONS TO VISIBILITY.

TXZ118-119-251700-
DALLAS/FORT WORTH METROPLEX

CITY           SKY/WX    TMP DP  RH WIND       PRES   REMARKS
DFW AIRPORT    MOSUNNY   76  52  43 W13       29.72S
DALLAS LOVE    SUNNY     77  53  43 VRB6      29.72S
FTW MEACHAM    SUNNY     75  52  44 W10       29.73S
DAL-EXECUTIVE    N/A     77  52  41 W15       29.72S
FTW-ALLIANCE   MOSUNNY   75  51  43 W10G17    29.73S
FTW-NAS-JRB    MOSUNNY   72  52  49 SW14      29.75S
FTW-SPINKS     SUNNY     75  52  43 W17       29.76F
ARLINGTON      SUNNY     77  50  38 SW10      29.73S
GRAND PRAIRIE  SUNNY     84  48  28 W14       29.74F
ADDISON        SUNNY     75  52  43 SW10      29.73S
MESQUITE       SUNNY     77  55  47 SW9       29.72F
LANCASTER      SUNNY     76  53  44 W10       29.74S
$$

TXZ091>094-102>105-117-120-121-131>134-251700-
NORTH CENTRAL TEXAS

CITY           SKY/WX    TMP DP  RH WIND       PRES   REMARKS
SHRMAN/DENISON SUNNY     73  59  60 W13       29.72R
GAINESVILLE    SUNNY     72  50  47 W10       29.73F
BOWIE          SUNNY     72  48  43 SW10      29.73S
BRIDGEPORT     SUNNY     73  54  50 W6        29.75F
DECATUR        SUNNY     71  49  46 SW9G16    29.74F
DENTON         SUNNY     74  54  49 W12       29.72F
MCKINNEY       SUNNY     76  52  43 W15       29.71F
GREENVILLE     SUNNY     75  52  43 SW10      29.72R
ROCKWALL       SUNNY     76  55  48 W9        29.71S
TERRELL        SUNNY     77  60  55 SW9       29.72F
WAXAHACHIE     SUNNY     77  53  43 CALM      29.75S
CLEBURNE       SUNNY     75  52  43 W10G17    29.77F
GRANBURY         N/A     78  51  39 SW12      29.77F
$$

TXZ083>090-098>101-113>116-127>130-139>142-154-155-251700-
WESTERN NORTH TEXAS

CITY           SKY/WX    TMP DP  RH WIND       PRES   REMARKS
WICHITA FALLS  SUNNY     72  47  40 W10       29.71S
WF-KICKAPOO    SUNNY     74  42  31 W10G16    29.73R
VERNON         SUNNY     73  38  27 W10       29.73R
ABILENE        SUNNY     76  42  29 W13       29.83R
ABILENE-DYESS  SUNNY     73  47  40 W15G21    29.82R
BRECKENRIDGE   SUNNY     78  44  29 W10       29.77S
GRAHAM         SUNNY     75  49  41 SW9       29.74S
MINERAL WELLS  SUNNY     73  55  53 W7        29.74F
STEPHENVILLE   SUNNY     73  48  40 W9        29.82S
COMANCHE       SUNNY     73  50  44 W10G16    29.82S
BROWNWOOD      SUNNY     73  46  38 W10       29.83S
COLEMAN        SUNNY     73  48  40 W13       29.84S
BRADY          SUNNY     79  43  27 W17       29.85S
$$

TXZ143>147-156>162-174-175-251700-
CENTRAL TEXAS

CITY           SKY/WX    TMP DP  RH WIND       PRES   REMARKS
WACO           SUNNY     81  55  40 W9        29.77S
WACO-TSTC      SUNNY     81  59  47 W9G17     29.77S
WACO-MCGREGOR  SUNNY     81  57  44 W10       29.78F
HILLSBORO      SUNNY     78  53  40 W10       29.76S
CORSICANA      SUNNY     79  62  56 SW12      29.76S
MEXIA          SUNNY     79  63  56 SW12      29.76S
HEARNE         SUNNY     77  71  80 W6        29.77F
CAMERON        SUNNY     81  70  69 W10       29.77F
TEMPLE         SUNNY     81  59  47 W13       29.78S
KILLEEN        SUNNY     80  48  32 W13       29.79F
KILLEEN-SKYLRK SUNNY     81  52  36 W13       29.79F
FORT HOOD      SUNNY     81  48  31 W13G18    29.78F
GATESVILLE     SUNNY     81  48  32 W10G16    29.81S
HAMILTON       SUNNY     76  47  35 W15G23    29.82S
LAMPASAS       SUNNY     80  49  33 W13G18    29.81S
$$

TXZ095>097-106>112-122>126-135>138-148>153-164>167-251700-
EAST TEXAS

CITY           SKY/WX    TMP DP  RH WIND       PRES   REMARKS
PARIS          SUNNY     75  55  50 MISG      29.70R
SULPHUR SPRNGS SUNNY     75  60  59 SW9       29.73S
MOUNT PLEASANT SUNNY    N/A N/A N/A SW15      29.72S
GILMER         MOSUNNY   77  69  77 SW5       29.71F
TYLER          MOSUNNY   79  68  69 SW15      29.72F
LONGVIEW       CLOUDY    79  69  71 SW10      29.71F
MARSHALL       CLOUDY    78  73  83 SW7       29.73F
ATHENS         MOSUNNY   79  63  57 SW6       29.73F
PALESTINE      CLOUDY    79  76  91 SW10      29.76F FOG
JACKSONVILLE   CLOUDY    77  72  84 W7        29.77S HAZE
HENDERSON        N/A     77  73  87 SW6       29.74
NACOGDOCHES    CLOUDY    75  70  83 SW7       29.75F
LUFKIN         CLOUDY    79  69  71 SW8       29.75F
$$

SUPPLEMENTAL OBSERVATIONS (CENTRAL)

CITY           SKY/WX    TMP DP  RH WIND       PRES   REMARKS
LAKE TEXOMA      N/A     70  52  52 W14         N/A
CADDO GRASSLND   N/A     79  57  47 W6          N/A
PAT MAYSE LAKE   N/A     72  52  49 SW10        N/A
GREENVILLE       N/A     75  52  43 W12         N/A
CEDAR HILL       N/A     79  52  38 SW5         N/A
ATHENS           N/A     82  63  51 W6          N/A
LAKE LIMESTONE   N/A     81  68  65 SW10        N/A
MCGREGOR         N/A     81  57  44 W12         N/A
TEMPLE           N/A     82  57  42 W9          N/A
$$

SUPPLEMENTAL OBSERVATIONS (WEST)

CITY           SKY/WX    TMP DP  RH WIND       PRES   REMARKS
MILLERS CREEK    N/A     73  46  38 W14         N/A
POSSUM KINGDOM   N/A     77  46  33 W8          N/A
LBJ GRASSLAND    N/A     75  54  46 SW6         N/A
GRANBURY         N/A     79  52  38 W10         N/A
COMANCHE         N/A     75  48  38 W13         N/A
HAMBY            N/A     75  45  33 W13         N/A
$$

SUPPLEMENTAL OBSERVATIONS (EAST)

CITY           SKY/WX    TMP DP  RH WIND       PRES   REMARKS
CLARKSVILLE      N/A     79  63  57 SW1G9       N/A
TEXARKANA        N/A     75  68  78 SW9G17      N/A
LINDEN           N/A     77  70  78 W6          N/A
CADDO LAKE       N/A     79  72  78 W3          N/A
GILMER           N/A     79  68  69 W8G17       N/A
HENDERSON        N/A     79  72  78 SW12        N/A
LUFKIN           N/A     79  72  78 MISG        N/A
N SABINE NF      N/A     75  72  88 MISG        N/A
S SABINE NF      N/A     72  66  83 CALM        N/A
$$

SUPPLEMENTAL OBSERVATIONS ARE A COLLECTION OF AUTOMATED INSTRUMENTS
THAT ARE MAINTAINED BY A VARIETY OF FEDERAL AND STATE AGENCIES.
CERTAIN ELEMENTS...SUCH AS HUMIDITY VALUES AND SUSTAINED WIND
SPEEDS...MAY BE APPROXIMATED.



USA.gov is the U.S. government's official web portal to all federal, state and local government web resources and services.